Location: ?
(35.4064°N, 139.3593°E)
Time: 04:25:48
(UTC+00:00)

USA 308 - Pass Details

Date: 18 April 2024
Orbit: 493 x 493 km, 54.0° (Epoch: 14 March)

Event Time Altitude Azimuth Distance (km) Brightness Sun altitude
Exits shadow 18:00:24 21° 341° (NNW) 1,105 4.5 -23.9°
Drops below altitude 10° 18:02:54 10° 19° (NNE) 1,683 6.0 -23.5°
Sets 18:05:30 0° 34° (NE) 2,581 7.4 -23.0°
